Weather History for De Queen, AR

Change the Weather History Date:

Friday, November 9, 2012

  Actual Average Record
Temperature  
Mean Temperature 62 °F 55 °F  
Max Temperature 79 °F 68 °F 84 °F (2005)
Min Temperature 44 °F 42 °F 18 °F (1991)
Degree Days  
Heating Degree Days 3 10  
Month to date heating degree days 62 79  
Since 1 July heating degree days 234 212  
Cooling Degree Days 0 0  
Month to date cooling degree days 2 5  
Year to date cooling degree days 2171 1939  
Growing Degree Days 12 (Base 50)    
Moisture  
Dew Point 51 °F    
Average Humidity 70    
Maximum Humidity 92    
Minimum Humidity 47    
Precipitation  
Precipitation 0.00 in 0.17 in 1.73 in (1940)
Month to date precipitation 0.01 1.52  
Year to date precipitation 24.09 41.24  
Snow  
Snow 0.00 in - - ()
Month to date snowfall 0.0  
Since 1 July snowfall 0.0  
Since 1 September snowfall 0.0  
Snow Depth 0.00 in    
Sea Level Pressure  
Sea Level Pressure 30.05 in    
Wind  
Wind Speed 6 mph (SE)    
Max Wind Speed 16 mph    
Max Gust Speed 24 mph    
Visibility 10 miles    
Events      
T = Trace of Precipitation, MM = Missing Value Source: NWS Daily Summary

Daily Weather History Graph

Daily Weather History Graph

Search for Another Location

Airport:

Trip Planner

Search our weather history database for the weather conditions in past years. The results will help you decide how hot, cold, wet, or windy it might be!

Date:

Astronomy

Nov. 09, 2012 Rise Set
Actual Time 6:45 AM CST 5:17 PM CST
Civil Twilight 6:18 AM CST 5:43 PM CST
Nautical Twilight 5:48 AM CST 6:13 PM CST
Astronomical Twilight 5:19 AM CST 6:43 PM CST
Moon 1:57 AM CST (11/9) 2:20 PM CST (11/9)
Length of Visible Light 11h 25m
Length of Day
10h 32m
Waning Crescent, 23% of the Moon is Illuminated
Nov 9
Waning Crescent
Nov 13
New
Nov 20
First Quarter
Nov 28
Full
Dec 6
Last Quarter

Hourly Weather History & Observations

Time (CST) Temp. Windchill Dew Point Humidity Pressure Visibility Wind Dir Wind Speed Gust Speed Precip Events Conditions
12:53 AM 50.0 °F - 43.0 °F 77% 30.07 in 10.0 mi ESE 4.6 mph - N/A   Clear
1:53 AM 46.9 °F - 42.1 °F 83% 30.07 in 10.0 mi East 3.5 mph - N/A   Clear
2:53 AM 46.0 °F 44.8 °F 42.1 °F 86% 30.08 in 10.0 mi East 3.5 mph - N/A   Clear
3:53 AM 45.0 °F - 42.1 °F 90% 30.08 in 10.0 mi Calm Calm - N/A   Clear
4:53 AM 46.0 °F 44.8 °F 43.0 °F 89% 30.09 in 10.0 mi ENE 3.5 mph - N/A   Clear
5:53 AM 48.9 °F - 44.1 °F 83% 30.10 in 9.0 mi Calm Calm - N/A   Scattered Clouds
6:53 AM 50.0 °F - 46.0 °F 86% 30.10 in 9.0 mi Calm Calm - N/A   Overcast
7:46 AM 54.0 °F - 48.9 °F 83% 30.13 in 10.0 mi East 3.5 mph - N/A   Overcast
7:53 AM 55.0 °F - 48.9 °F 80% 30.12 in 10.0 mi East 3.5 mph - N/A   Overcast
8:53 AM 57.0 °F - 50.0 °F 77% 30.12 in 10.0 mi East 4.6 mph - N/A   Mostly Cloudy
9:53 AM 64.9 °F - 54.0 °F 68% 30.11 in 10.0 mi Variable 4.6 mph - N/A   Partly Cloudy
10:53 AM 69.1 °F - 55.9 °F 63% 30.09 in 10.0 mi SSW 9.2 mph - N/A   Overcast
11:53 AM 73.0 °F - 57.9 °F 59% 30.05 in 10.0 mi SSW 12.7 mph 18.4 mph N/A   Overcast
12:53 PM 78.1 °F - 57.9 °F 50% 30.01 in 10.0 mi SSW 9.2 mph 21.9 mph N/A   Mostly Cloudy
1:53 PM 78.1 °F - 57.0 °F 48% 29.99 in 10.0 mi SSW 10.4 mph 21.9 mph N/A   Clear
2:53 PM 78.1 °F - 57.0 °F 48% 29.97 in 10.0 mi South 13.8 mph 20.7 mph N/A   Clear
3:53 PM 77.0 °F - 55.9 °F 48% 29.96 in 10.0 mi South 12.7 mph 20.7 mph N/A   Clear
4:53 PM 75.0 °F - 55.9 °F 51% 29.96 in 10.0 mi South 9.2 mph - N/A   Clear
5:53 PM 72.0 °F - 54.0 °F 53% 29.98 in 10.0 mi SSE 5.8 mph - N/A   Clear
6:53 PM 68.0 °F - 53.1 °F 59% 30.00 in 10.0 mi SE 4.6 mph - N/A   Clear
7:53 PM 68.0 °F - 52.0 °F 56% 30.01 in 10.0 mi SE 4.6 mph - N/A   Clear
8:53 PM 64.9 °F - 51.1 °F 61% 30.02 in 10.0 mi ESE 4.6 mph - N/A   Clear
9:53 PM 61.0 °F - 51.1 °F 70% 30.02 in 10.0 mi ESE 4.6 mph - N/A   Clear
10:53 PM 64.0 °F - 51.1 °F 63% 30.03 in 10.0 mi South 6.9 mph - N/A   Clear
11:53 PM 63.0 °F - 52.0 °F 67% 30.03 in 10.0 mi South 5.8 mph - N/A   Clear